Voltar ao catálogo

VANGUARD 1

AtivoCiênciaUNKNOWN
NORAD 5·PAYLOAD·🇺🇸 United States

Lançado Mar 17, 1958 de Cape Canaveral Space Force Station

Loading…

Próximas Passagens (próximas 24 horas)

TLE

AtualizadoSource: Space-Track

Época: Sep 5, 2026, 11:42 UTC

1 00005U 58002B   26248.48804693  .00000282  00000-0  36877-3 0  9990
2 00005  34.2437  66.4906 1837129 140.6186 234.3508 10.86045502452016

Acompanhe VANGUARD 1 em tempo real com AllMySat

Download on the App Store